Hauptseite
METAR-TAF:

METAR-TAF

Flughäfen :

Lechfeld, Deutschland

Fliegerhorst Lechfeld

Breite: 48-11N, Länge: 010-52E, Höhe: 555 m

Beobachtung

Neuester Wetterbericht von vor 46 Minuten, um 16:20 UTC
Wind 9 kt aus West
Temperatur 4°C
Luftfeuchtigkeit 87%
Luftdruck 1000 hPa
Sichtweite: 8000 m
Durchbrochene Bewölkung in der Höhe von 1000 ft
Regenschauer

METAR: ETSL 161620Z 26009KT 8000 -SHRA BKN010 04/02 Q1000 GRN

Zeit: 18:06 (17:06 UTC)


TAF: fehlend

Wetterbeobachtungen und Prognosen von mehr als 4000 Flughäfen (METAR und TAF Bericht).

Die verfügbaren Stationen werden durch gelbe und rote Markierungen auf der Karte dargestellt.

Führen Sie die Maus auf sie, um den Namen der Station zu sehen.

Darauf klicken, um die Beobachtung von Wetterbeobachtungen und Prognosen zu sehen.

Um die Karte zu ändern : klicken Sie auf den grünen Tasten mit einem schwarzen Kreuz Zum Vergrößern, auf den grünen Button mit einem Gedankenstrich zu verkleinern, oder auf die grünen Pfeile für benachbarte Karten.


METAR-TAF: